South Paris, Maine, United States (04281)
Lat: 44.22N, Lon: 70.51W
Wx Zone: MEZ012
Local Info
Past Weather Observations for Tuesday, October 21, 2014

NOTE: This archive is for the closest National Weather Service station to South Paris. Information may differ from the station used for current weather conditions.

Click here for Long-term Archive

Time Weather Temperature Dewpoint Humidity Pressure Winds Precip Visibility
23:55
Overcast
46°F / 8°C 43°F / 6°C 87% 30.09 in
(1019 mb)
NE 16.1 mph
(NE 26 kph)
- 10SM
23:35
Overcast
46°F / 8°C 43°F / 6°C 87% 30.09 in
(1019 mb)
NE 12.7 mph
(NE 20 kph)
- 10SM
23:15
Overcast
46°F / 8°C 43°F / 6°C 87% 30.09 in
(1019 mb)
NE 11.5 mph
(NE 19 kph)
- 10SM
22:55
Overcast
45°F / 7°C 43°F / 6°C 93% 30.09 in
(1019 mb)
NNE 11.5 mph
(NNE 19 kph)
- 9SM
22:35
Overcast
45°F / 7°C 43°F / 6°C 93% 30.09 in
(1019 mb)
NNE 15 mph
(NNE 24 kph)
- 7SM
22:15
Overcast
45°F / 7°C 41°F / 5°C 87% 30.09 in
(1019 mb)
NNE 12.7 mph
(NNE 20 kph)
- 10SM
21:55
Overcast
45°F / 7°C 41°F / 5°C 87% 30.09 in
(1019 mb)
NNE 13.8 mph
(NNE 22 kph)
- 6SM
21:35
Overcast
45°F / 7°C 43°F / 6°C 93% 30.09 in
(1019 mb)
NNE 15 mph
(NNE 24 kph)
- 10SM
21:15
Overcast
45°F / 7°C 43°F / 6°C 93% 30.09 in
(1019 mb)
NE 16.1 mph
(NE 26 kph)
- 7SM
20:55
Overcast
45°F / 7°C 43°F / 6°C 93% 30.09 in
(1019 mb)
NNE 13.8 mph
(NNE 22 kph)
- 6SM
20:35
Overcast
45°F / 7°C 43°F / 6°C 93% 30.06 in
(1018 mb)
NNE 13.8 mph
(NNE 22 kph)
- 10SM
20:15
Overcast
45°F / 7°C 43°F / 6°C 93% 30.06 in
(1018 mb)
NNE 15 mph
(NNE 24 kph)
- 10SM
19:55
Overcast
46°F / 8°C 43°F / 6°C 87% 30.06 in
(1018 mb)
NNE 12.7 mph
(NNE 20 kph)
- 9SM
19:35
Overcast
46°F / 8°C 43°F / 6°C 87% 30.06 in
(1018 mb)
NNE 12.7 mph
(NNE 20 kph)
- 6SM
19:15
Overcast
46°F / 8°C 43°F / 6°C 87% 30.06 in
(1018 mb)
NNE 16.1 mph
(NNE 26 kph)
- 9SM
18:55
Overcast
46°F / 8°C 43°F / 6°C 87% 30.06 in
(1018 mb)
NNE 13.8 mph
(NNE 22 kph)
- 10SM
18:35
Overcast
46°F / 8°C 43°F / 6°C 87% 30.06 in
(1018 mb)
NNE 13.8 mph
(NNE 22 kph)
- 5SM
18:15
Overcast
46°F / 8°C 43°F / 6°C 87% 30.06 in
(1018 mb)
NNE 12.7 mph
(NNE 20 kph)
- 5SM
17:55
Overcast
46°F / 8°C 43°F / 6°C 87% 30.06 in
(1018 mb)
NNE 12.7 mph
(NNE 20 kph)
- 10SM
17:35
Overcast
46°F / 8°C 43°F / 6°C 87% 30.04 in
(1017 mb)
NE 10.4 mph
(NE 17 kph)
- 9SM
17:15
Overcast
46°F / 8°C 43°F / 6°C 87% 30.04 in
(1017 mb)
NE 13.8 mph
(NE 22 kph)
- 10SM
16:55
Overcast
46°F / 8°C 45°F / 7°C 93% 30.04 in
(1017 mb)
NNE 15 mph
(NNE 24 kph)
- 7SM
16:35
Overcast
48°F / 9°C 45°F / 7°C 87% 30.04 in
(1017 mb)
NE 13.8 mph
(NE 22 kph)
- 10SM
16:15
Overcast
48°F / 9°C 45°F / 7°C 87% 30.04 in
(1017 mb)
NNE 13.8 mph
(NNE 22 kph)
- 10SM
15:55
Overcast
48°F / 9°C 45°F / 7°C 87% 30.04 in
(1017 mb)
NE 11.5 mph
(NE 19 kph)
- 10SM
15:35
Overcast
48°F / 9°C 45°F / 7°C 87% 30.04 in
(1017 mb)
NNE 13.8 mph
(NNE 22 kph)
- 10SM
15:15
Overcast
48°F / 9°C 45°F / 7°C 87% 30.04 in
(1017 mb)
N 9.2 mph
(N 15 kph)
- 10SM
14:55
Overcast
48°F / 9°C 46°F / 8°C 94% 30.04 in
(1017 mb)
NNE 9.2 mph
(NNE 15 kph)
- 10SM
14:35
Overcast
48°F / 9°C 45°F / 7°C 87% 30.01 in
(1016 mb)
NNE 10.4 mph
(NNE 17 kph)
- 10SM
14:15
Overcast
48°F / 9°C 45°F / 7°C 87% 30.01 in
(1016 mb)
NNE 12.7 mph
(NNE 20 kph)
- 10SM
13:55
Overcast
48°F / 9°C 45°F / 7°C 87% 30.01 in
(1016 mb)
NE 12.7 mph
(NE 20 kph)
- 10SM
13:35
Overcast
48°F / 9°C 45°F / 7°C 87% 30.01 in
(1016 mb)
NE 12.7 mph
(NE 20 kph)
- 10SM
13:15
Overcast
48°F / 9°C 45°F / 7°C 87% 30.01 in
(1016 mb)
NE 11.5 mph
(NE 19 kph)
- 10SM
12:55
Overcast
48°F / 9°C 45°F / 7°C 87% 30.01 in
(1016 mb)
NNE 10.4 mph
(NNE 17 kph)
- 10SM
12:35
Overcast
48°F / 9°C 43°F / 6°C 82% 30.01 in
(1016 mb)
NNE 8.1 mph
(NNE 13 kph)
- 10SM
12:15
Overcast
48°F / 9°C 43°F / 6°C 82% 30.04 in
(1017 mb)
NNE 6.9 mph
(NNE 11 kph)
- 10SM
11:55
Overcast
46°F / 8°C 43°F / 6°C 87% 30.04 in
(1017 mb)
NNE 8.1 mph
(NNE 13 kph)
- 10SM
11:35
Overcast
46°F / 8°C 43°F / 6°C 87% 30.04 in
(1017 mb)
N 9.2 mph
(N 15 kph)
- 10SM
11:15
Overcast
46°F / 8°C 43°F / 6°C 87% 30.04 in
(1017 mb)
N 5.8 mph
(N 9 kph)
- 10SM
10:55
Overcast
46°F / 8°C 43°F / 6°C 87% 30.06 in
(1018 mb)
N 6.9 mph
(N 11 kph)
- 10SM
10:35
Overcast
46°F / 8°C 43°F / 6°C 87% 30.06 in
(1018 mb)
N 5.8 mph
(N 9 kph)
- 10SM
10:15
Overcast
46°F / 8°C 43°F / 6°C 87% 30.06 in
(1018 mb)
NNE 6.9 mph
(NNE 11 kph)
- 10SM
09:55
Overcast
46°F / 8°C 41°F / 5°C 82% 30.06 in
(1018 mb)
N 6.9 mph
(N 11 kph)
- 10SM
09:35
Overcast
46°F / 8°C 41°F / 5°C 82% 30.06 in
(1018 mb)
N 5.8 mph
(N 9 kph)
- 10SM
09:15
Overcast
46°F / 8°C 41°F / 5°C 82% 30.06 in
(1018 mb)
NNE 4.6 mph
(NNE 7 kph)
- 10SM
08:55
Overcast
46°F / 8°C 43°F / 6°C 87% 30.06 in
(1018 mb)
N 6.9 mph
(N 11 kph)
- 10SM
08:35
Overcast
45°F / 7°C 41°F / 5°C 87% 30.06 in
(1018 mb)
N 5.8 mph
(N 9 kph)
- 10SM
08:15
Overcast
45°F / 7°C 39°F / 4°C 81% 30.06 in
(1018 mb)
NE 4.6 mph
(NE 7 kph)
- 10SM
07:55
Partly Cloudy
45°F / 7°C 39°F / 4°C 81% 30.04 in
(1017 mb)
N 3.5 mph
(N 6 kph)
- 10SM
07:35
Partly Cloudy
45°F / 7°C 39°F / 4°C 81% 30.04 in
(1017 mb)
N 4.6 mph
(N 7 kph)
- 10SM
07:15
Mostly Cloudy
43°F / 6°C 39°F / 4°C 87% 30.04 in
(1017 mb)
Calm - 10SM
06:55
Mostly Cloudy
43°F / 6°C 39°F / 4°C 87% 30.04 in
(1017 mb)
NNE 4.6 mph
(NNE 7 kph)
- 10SM
06:35
Mostly Cloudy
43°F / 6°C 37°F / 3°C 81% 30.04 in
(1017 mb)
Calm - 10SM
06:15
Mostly Cloudy
43°F / 6°C 37°F / 3°C 81% 30.04 in
(1017 mb)
Calm - 10SM
05:55
Overcast
43°F / 6°C 37°F / 3°C 81% 30.04 in
(1017 mb)
NNE 3.5 mph
(NNE 6 kph)
- 10SM
05:35
Mostly Cloudy
41°F / 5°C 37°F / 3°C 87% 30.01 in
(1016 mb)
N 4.6 mph
(N 7 kph)
- 10SM
05:15
Overcast
41°F / 5°C 37°F / 3°C 87% 30.04 in
(1017 mb)
Calm - 10SM
04:55
Overcast
41°F / 5°C 37°F / 3°C 87% 30.04 in
(1017 mb)
Calm - 10SM
04:35
Overcast
41°F / 5°C 37°F / 3°C 87% 30.04 in
(1017 mb)
Calm - 10SM
04:15
Overcast
41°F / 5°C 37°F / 3°C 87% 30.01 in
(1016 mb)
Calm - 10SM
03:55
Overcast
41°F / 5°C 37°F / 3°C 87% 30.01 in
(1016 mb)
Calm - 10SM
03:35
Overcast
43°F / 6°C 37°F / 3°C 81% 30.01 in
(1016 mb)
Calm - 10SM
03:15
Overcast
43°F / 6°C 37°F / 3°C 81% 30.01 in
(1016 mb)
Calm - 10SM
02:55
Overcast
43°F / 6°C 36°F / 2°C 76% 30.01 in
(1016 mb)
Calm - 10SM
02:35
Overcast
41°F / 5°C 36°F / 2°C 81% 30.01 in
(1016 mb)
Calm - 10SM
02:15
Overcast
41°F / 5°C 36°F / 2°C 81% 30.01 in
(1016 mb)
Calm - 10SM
01:55
Overcast
41°F / 5°C 36°F / 2°C 81% 30.01 in
(1016 mb)
S 4.6 mph
(S 7 kph)
- 10SM
01:35
Overcast
39°F / 4°C 36°F / 2°C 87% 30.01 in
(1016 mb)
Calm - 10SM
01:15
Overcast
41°F / 5°C 34°F / 1°C 76% 30.01 in
(1016 mb)
Calm - 10SM
00:55
Overcast
39°F / 4°C 36°F / 2°C 87% 30.01 in
(1016 mb)
SSE 8.1 mph
(SSE 13 kph)
- 10SM
00:35
Overcast
39°F / 4°C 34°F / 1°C 81% 30.01 in
(1016 mb)
Calm - 10SM
00:15
Overcast
39°F / 4°C 34°F / 1°C 81% 30.01 in
(1016 mb)
Calm - 10SM
Time Weather Temperature Dewpoint Humidity Pressure Winds Precip Visibility


Weather for websites

WeatherForYou.com, LLC is not responsible for any damages or problems caused by this service. Current weather conditions are obtained from the closest station including government and personal stations which may have varying degrees of accuracy. Weather forecasts are derived from the NOAA NDFD. Like all things, this site belongs to Jesus Christ... He just trusts me to maintain it. If you have any questions or comments email webmaster@weatherforyou.com

Copyright © 2014, WeatherForYou.com LLC. All rights reserved.